Regional Weather Roundup
Issued by NWS

Home | Current Version | Previous Version | Graphics & Text | Print | Product List | Glossary Off
Versions: 1 2 3 4 5 6 7 8 9 10 11 12 13 14 15 16 17 18 19 20 21 22 23 24 25 26 27 28 29 30 31 32 33 34 35 36 37 38 39 40 41 42 43 44 45 46 47 48 49 50

000
ASUS43 KDTX 302010
RWRMI
MICHIGAN HOURLY REGIONAL WEATHER ROUNDUP
NATIONAL WEATHER SERVICE DETROIT/PONTIAC MI
400 PM EDT TUE AUG 30 2016

NOTE: "FAIR" INDICATES FEW OR NO CLOUDS BELOW 12,000 FEET WITH NO
SIGNIFICANT WEATHER AND/OR OBSTRUCTION TO VISIBILITY.

MIZ047>049-052>055-059>063-066>070-074>076-081>083-302100-
SOUTHEAST LOWER MICHIGAN

CITY           SKY/WX    TMP DP  RH WIND       PRES   REMARKS
ADRIAN         CLOUDY    81  67  62 W3        30.10F
ALMA           RAIN      73  71  95 W7        30.07F
ANN ARBOR      CLOUDY    77  67  71 MISG      30.10F
BAD AXE        PTSUNNY   82  68  64 W9G18     30.06F
CARO           CLOUDY    81  71  72 SW10      30.05F
DETROIT CITY   CLOUDY    81  55  40 S7        30.09F
DETROIT        CLOUDY    81  59  47 W7        30.10F
FLINT          CLOUDY    76  71  85 S7        30.08F
GROSSE ILE     CLOUDY    76  64  65 S5        30.08F
HILLSDALE      CLOUDY    80  69  69 CALM      30.10F
HOWELL         CLOUDY    80  69  69 S7        30.10F

CITY           SKY/WX    TMP DP  RH WIND       PRES   REMARKS
JACKSON        MOSUNNY   80  69  69 SW6       30.10F
LAMBERTVILLE   MOSUNNY   85  55  35 NW3       30.10F
LANSING        MOSUNNY   81  68  64 SW9       30.08F
LAPEER         FAIR      76  67  74 SW7       30.09F
MASON          CLOUDY    80  69  68 CALM      30.09F
MONROE         PTSUNNY   82  66  57 CALM      30.09F
MT. CLEMENS    CLOUDY    82  64  55 S10       30.07F
PONTIAC        CLOUDY    79  66  64 CALM      30.09F
PORT HOPE        N/A     83  69  62 W8        30.02F
PORT HURON     CLOUDY    77  64  65 SW8       30.09S
TRI CITIES     CLOUDY    82  70  66 SW12      30.06F
MIDLAND        PTSUNNY   84  68  59 SW10      30.04F
TROY           CLOUDY    83  55  38 S7        30.11F
SAGINAW HB     LGT RAIN  75  70  83 S10       30.05F
$$
MIZ043>046-050>051-056>058-064>065-071>073-077>080-302100-
SOUTHWEST LOWER MICHIGAN

CITY           SKY/WX    TMP DP  RH WIND       PRES   REMARKS
BATTLE CREEK   PTSUNNY   78  70  76 SW6       30.10F
BENTON HARBOR  CLOUDY    80  72  76 W7        30.08F
BIG RAPIDS     PTSUNNY   82  71  69 W8        30.06F
COLDWATER      CLOUDY    81  71  71 SW3       30.10F
FREMONT        FAIR      82  70  66 W9        30.06F
HOLLAND        MOSUNNY   81  70  69 VRB7      30.09F
GRAND RAPIDS   PTSUNNY   79  71  76 CALM      30.08F
IONIA          PTSUNNY   81  68  65 W5        30.07F
KALAMAZOO      PTSUNNY   80  69  69 S5        30.09F
LUDINGTON      PTSUNNY   77  72  83 SW9       30.06F
MARSHALL       CLOUDY    79  73  81 SW3       30.09F
MOUNT PLEASANT LGT RAIN  78  73  85 W6        30.05F
MUSKEGON       CLOUDY    77  71  82 SW7       30.08F
SOUTH HAVEN    PTSUNNY   85  70  61 W6        30.08S
$$
MIZ016>042-302100-
NORTHERN LOWER MICHIGAN

CITY           SKY/WX    TMP DP  RH WIND       PRES   REMARKS
ALPENA         LGT RAIN  76  69  79 SE10      30.02R
BEAVER ISLAND  MOSUNNY   79  66  65 W10       30.03F
BELLAIRE       MOSUNNY   82  70  66 CALM      30.02F
CADILLAC       PTSUNNY   84  67  57 SW13G18   30.06F
CHARLEVOIX     SUNNY     78  69  75 W12       30.06F
FRANKFORT      CLOUDY    76  71  83 SW8       30.05F HAZE
GAYLORD        PTSUNNY   82  66  58 W9G18     30.04F
GRAYLING       PTSUNNY   84  67  56 W13G20    30.05F
HARBOR SPRINGS SUNNY     77  71  82 W7        30.03F
HOUGHTON LAKE  TSTM      71  60  68 W22G33    30.08S VSB 1
MANISTEE       MOSUNNY   79  72  79 SW9       30.04F
OSCODA         MOSUNNY   88  66  48 SW13G20   29.99F HX  90
PELLSTON       MOSUNNY   82  66  58 W12       30.02F
ROGERS CITY    MOSUNNY   77  69  74 N8        30.01F
TRAVERSE CITY  PTSUNNY   86  67  52 W14       30.01F
$$
MIZ007>008-015-302100-
EASTERN UPPER MICHIGAN

CITY           SKY/WX    TMP DP  RH WIND       PRES   REMARKS
KINROSS        PTSUNNY   73  67  81 N16       30.01F
MACKINAC ISLAN MOSUNNY   78  66  68 W9G17     30.01F
NEWBERRY       PTSUNNY   79  66  64 W12       30.02F
S. S. MARIE    CLOUDY    75  63  66 NW13G21   30.01F
MUNISING         N/A     70  63  78 N9        30.07F
$$
MIZ004>006-011>014-085-302100-
CENTRAL UPPER MICHIGAN

CITY           SKY/WX    TMP DP  RH WIND       PRES   REMARKS
MANISTIQUE     CLOUDY    78  68  72 N9        30.02F
ESCANABA       CLOUDY    80  68  66 VRB3      30.03F
MENOMINEE      MOSUNNY  N/A N/A N/A VRB6      30.03F
SAWYER-GWINN   MOSUNNY   72  63  73 NE10      30.08F
$$
MIZ001>003-009>011-084-302100-
WESTERN UPPER MICHIGAN

CITY           SKY/WX    TMP DP  RH WIND       PRES   REMARKS
IRON MOUNTAIN  CLOUDY    77  62  59 NW9       30.07F
HOUGHTON       SUNNY     70  56  61 NW15      30.11S
COPPER HARBOR    N/A     69  61  75 N13       30.09F
IRONWOOD       SUNNY     70  56  61 W8        30.16S
$$

ABBREVIATIONS USED IN REMARKS
   TC - TEMPERATURE IN CELSIUS
  WCI - WIND CHILL INDEX
   HX - HEAT INDEX
  VSB - VISIBILITY





USA.gov is the U.S. government's official web portal to all federal, state and local government web resources and services.